Location: Pl�tzky
(52.0521°N, 11.8020°E)
Time: 14:38:14
(UTC+00:00)

USA 229 - Pass Details

Date: 22 February 2020
Orbit: 986 x 1226 km, 63.4° (Epoch: 26 March)

Event Time Altitude Azimuth Distance (km) Brightness Sun altitude
Rises 21:03:09 0° 279° (W) 3,795 7.2 -39.0°
Reaches altitude 10° 21:06:01 10° 289° (WNW) 2,875 6.5 -39.4°
Maximum altitude 21:12:08 34° 353° (N) 1,738 5.0 -40.0°
Enters shadow 21:12:15 34° 355° (N) 1,739 5.0 -40.1°
